Location: Ar Ranvel
(48.3000°N, 4.8833°W)
Time: 03:33:30
(UTC+00:00)

Cosmos 2322 Rocket - Pass Details

Date: 26 October 2021
Orbit: 832 x 851 km, 71.0° (Epoch: 01 December)

Event Time Altitude Azimuth Distance (km) Brightness Sun altitude
Rises 21:03:42 0° 276° (W) 3,380 6.1 -38.6°
Reaches altitude 10° 21:07:47 10° 305° (NW) 2,452 5.3 -39.2°
Maximum altitude 21:10:07 13° 330° (NNW) 2,279 4.9 -39.5°
Drops below altitude 10° 21:12:29 10° 355° (N) 2,460 4.9 -39.9°
Enters shadow 21:12:59 - 359° (N) 2,542 5.0 -40.0°
